When you browse on this site, cookies collect data to enhance your experience and personalize the content and advertising you see.
Visit our Privacy Policy to learn more. By continuing to use the site, you agree to this use of cookies and data.
  • En España
  • Lista de países
  • Para 7 días
  • Temperatura del agua
  • El tiempo en el mapa
  • Informadores
  • user-avatar
    Iniciar sesión

    Tiempo cada hora Semendyay

    Hoy, 23 Agosto, Viernes

    Tiempo Temperatura Precipitaciones Viento Presión Humedad
    00:00 +14°C° 0 mm 4 mps 748 mmHg 87%
    01:00 +14°C° 0 mm 4 mps 749 mmHg 89%
    02:00 +13°C° 0 mm 4 mps 749 mmHg 87%
    03:00 +13°C° 0 mm 4 mps 749 mmHg 88%
    04:00 +13°C° 0 mm 4 mps 749 mmHg 89%
    05:00 +13°C° 0 mm 4 mps 749 mmHg 90%
    06:00 +14°C° 0 mm 4 mps 749 mmHg 87%
    07:00 +15°C° 0 mm 4 mps 750 mmHg 83%
    08:00 +16°C° 0 mm 5 mps 750 mmHg 79%
    09:00 +17°C° 0 mm 5 mps 750 mmHg 75%
    10:00 +19°C° 0 mm 4 mps 750 mmHg 70%
    11:00 +21°C° 0 mm 4 mps 750 mmHg 66%
    12:00 +21°C° 0 mm 4 mps 750 mmHg 64%
    13:00 +22°C° 0 mm 4 mps 750 mmHg 62%
    14:00 +22°C° 0 mm 4 mps 750 mmHg 60%
    15:00 +22°C° 0 mm 4 mps 750 mmHg 64%
    16:00 +21°C° 0 mm 3 mps 749 mmHg 68%
    17:00 +21°C° 0 mm 2 mps 749 mmHg 72%
    18:00 +19°C° 0 mm 2 mps 749 mmHg 76%
    19:00 +17°C° 0 mm 2 mps 749 mmHg 80%
    20:00 +16°C° 0 mm 2 mps 749 mmHg 84%
    21:00 +15°C° 0 mm 2 mps 749 mmHg 85%
    22:00 +15°C° 0 mm 2 mps 749 mmHg 87%
    23:00 +14°C° 0 mm 2 mps 749 mmHg 89%

    Mañana, 24 Agosto, Sábado

    Tiempo Temperatura Precipitaciones Viento Presión Humedad
    00:00 +14°C° 0 mm 2 mps 749 mmHg 89%
    01:00 +14°C° 0 mm 2 mps 749 mmHg 90%
    02:00 +13°C° 0 mm 2 mps 749 mmHg 90%
    03:00 +13°C° 0 mm 2 mps 749 mmHg 90%
    04:00 +13°C° 0 mm 1 mps 749 mmHg 90%
    05:00 +13°C° 0 mm 1 mps 749 mmHg 90%
    06:00 +14°C° 0 mm 1 mps 749 mmHg 84%
    07:00 +16°C° 0 mm 1 mps 749 mmHg 78%
    08:00 +19°C° 0 mm 1 mps 749 mmHg 72%
    09:00 +20°C° 0 mm 1 mps 749 mmHg 66%
    10:00 +22°C° 0 mm 1 mps 749 mmHg 60%
    11:00 +23°C° 0 mm 1 mps 749 mmHg 54%
    12:00 +23°C° 0 mm 1 mps 748 mmHg 53%
    13:00 +24°C° 0 mm 1 mps 748 mmHg 51%
    14:00 +24°C° 0 mm 2 mps 748 mmHg 49%
    15:00 +24°C° 0 mm 2 mps 748 mmHg 53%
    16:00 +23°C° 0 mm 1 mps 747 mmHg 58%
    17:00 +23°C° 0 mm 1 mps 747 mmHg 62%
    18:00 +21°C° 0 mm 1 mps 747 mmHg 67%
    19:00 +19°C° 0 mm 1 mps 747 mmHg 71%
    20:00 +16°C° 0 mm 1 mps 747 mmHg 76%
    21:00 +16°C° 0 mm 1 mps 747 mmHg 78%
    22:00 +15°C° 0 mm 2 mps 747 mmHg 81%
    23:00 +15°C° 0 mm 2 mps 747 mmHg 84%

    Pasado mañana, 25 Agosto, Domingo

    Tiempo Temperatura Precipitaciones Viento Presión Humedad
    00:00 +15°C° 0 mm 2 mps 747 mmHg 87%
    01:00 +14°C° 0 mm 2 mps 747 mmHg 89%
    02:00 +14°C° 0 mm 2 mps 747 mmHg 92%
    03:00 +14°C° 0 mm 2 mps 747 mmHg 93%
    04:00 +14°C° 0 mm 2 mps 747 mmHg 94%
    05:00 +14°C° 0 mm 2 mps 747 mmHg 94%
    06:00 +15°C° 0 mm 2 mps 747 mmHg 90%
    07:00 +17°C° 0 mm 2 mps 747 mmHg 85%
    08:00 +18°C° 0 mm 3 mps 747 mmHg 81%
    09:00 +20°C° 0 mm 3 mps 748 mmHg 75%
    10:00 +21°C° 0 mm 3 mps 748 mmHg 70%
    11:00 +22°C° 0 mm 3 mps 748 mmHg 64%
    12:00 +22°C° 0 mm 4 mps 748 mmHg 61%
    13:00 +22°C° 0 mm 4 mps 748 mmHg 58%
    14:00 +22°C° 0 mm 4 mps 748 mmHg 55%
    15:00 +22°C° 0 mm 3 mps 748 mmHg 59%
    16:00 +21°C° 0 mm 3 mps 748 mmHg 63%
    17:00 +21°C° 0 mm 3 mps 748 mmHg 67%
    18:00 +19°C° 0 mm 2 mps 748 mmHg 71%
    19:00 +17°C° 0 mm 2 mps 748 mmHg 75%
    20:00 +15°C° 0 mm 2 mps 749 mmHg 79%
    21:00 +15°C° 0 mm 2 mps 749 mmHg 82%
    22:00 +14°C° 0 mm 2 mps 749 mmHg 84%
    23:00 +14°C° 0 mm 2 mps 750 mmHg 86%

    26 Agosto, Lunes

    Tiempo Temperatura Precipitaciones Viento Presión Humedad
    00:00 +13°C° 0 mm 2 mps 750 mmHg 88%
    01:00 +13°C° 0 mm 2 mps 750 mmHg 89%
    02:00 +13°C° 0 mm 2 mps 750 mmHg 91%
    03:00 +12°C° 0 mm 2 mps 750 mmHg 91%
    04:00 +12°C° 0 mm 2 mps 750 mmHg 92%
    05:00 +12°C° 0 mm 1 mps 750 mmHg 92%
    06:00 +14°C° 0 mm 2 mps 750 mmHg 85%
    07:00 +15°C° 0 mm 2 mps 750 mmHg 79%
    08:00 +17°C° 0 mm 2 mps 751 mmHg 72%
    09:00 +18°C° 0 mm 2 mps 751 mmHg 67%
    10:00 +19°C° 0 mm 2 mps 751 mmHg 61%
    11:00 +20°C° 0 mm 2 mps 751 mmHg 55%
    12:00 +22°C° 0 mm 1 mps 750 mmHg 53%
    13:00 +22°C° 0 mm 1 mps 750 mmHg 51%
    14:00 +23°C° 0 mm 1 mps 750 mmHg 49%
    15:00 +23°C° 0 mm 1 mps 749 mmHg 52%
    16:00 +22°C° 0 mm 1 mps 749 mmHg 56%
    17:00 +20°C° 0 mm 0 mps 749 mmHg 60%
    18:00 +18°C° 0 mm 0 mps 749 mmHg 62%
    19:00 +16°C° 0 mm 0 mps 748 mmHg 65%
    20:00 +15°C° 0 mm 0 mps 748 mmHg 68%
    21:00 +15°C° 0 mm 1 mps 748 mmHg 69%
    22:00 +15°C° 0 mm 1 mps 748 mmHg 70%
    23:00 +14°C° 0 mm 1 mps 748 mmHg 71%

    27 Agosto, Martes

    Tiempo Temperatura Precipitaciones Viento Presión Humedad
    00:00 +14°C° 0 mm 1 mps 748 mmHg 72%
    01:00 +14°C° 0 mm 1 mps 748 mmHg 73%
    02:00 +13°C° 0 mm 1 mps 748 mmHg 74%
    03:00 +13°C° 0 mm 2 mps 747 mmHg 76%
    04:00 +13°C° 0 mm 2 mps 747 mmHg 78%
    05:00 +12°C° 0 mm 2 mps 747 mmHg 80%
    06:00 +14°C° 0 mm 2 mps 747 mmHg 78%
    07:00 +16°C° 0 mm 2 mps 747 mmHg 76%
    08:00 +17°C° 0 mm 2 mps 747 mmHg 74%
    09:00 +19°C° 0 mm 3 mps 747 mmHg 70%
    10:00 +20°C° 0 mm 3 mps 747 mmHg 67%
    11:00 +22°C° 0 mm 4 mps 746 mmHg 63%
    12:00 +22°C° 0 mm 4 mps 746 mmHg 63%
    13:00 +23°C° 0 mm 4 mps 746 mmHg 62%
    14:00 +23°C° 0 mm 4 mps 745 mmHg 62%
    15:00 +22°C° 0 mm 4 mps 745 mmHg 66%
    16:00 +22°C° 0 mm 3 mps 745 mmHg 70%
    17:00 +21°C° 0 mm 3 mps 745 mmHg 74%
    18:00 +20°C° 0 mm 3 mps 745 mmHg 79%
    19:00 +19°C° 0 mm 3 mps 745 mmHg 83%
    20:00 +17°C° 0 mm 3 mps 745 mmHg 87%
    21:00 +17°C° 0 mm 3 mps 745 mmHg 89%
    22:00 +16°C° 0 mm 3 mps 745 mmHg 91%
    23:00 +16°C° 0 mm 2 mps 745 mmHg 92%

    28 Agosto, Miércoles

    Tiempo Temperatura Precipitaciones Viento Presión Humedad
    00:00 +15°C° 0 mm 2 mps 745 mmHg 93%
    01:00 +15°C° 0 mm 2 mps 745 mmHg 93%
    02:00 +14°C° 0 mm 2 mps 745 mmHg 94%
    03:00 +14°C° 0 mm 2 mps 745 mmHg 94%
    04:00 +13°C° 0 mm 2 mps 746 mmHg 94%
    05:00 +13°C° 0 mm 2 mps 746 mmHg 94%
    06:00 +14°C° 0 mm 2 mps 746 mmHg 88%
    07:00 +16°C° 0 mm 2 mps 746 mmHg 82%
    08:00 +18°C° 0 mm 2 mps 747 mmHg 75%
    09:00 +19°C° 0 mm 3 mps 747 mmHg 70%
    10:00 +20°C° 0 mm 3 mps 747 mmHg 65%
    11:00 +21°C° 0 mm 3 mps 747 mmHg 60%
    12:00 +21°C° 0 mm 3 mps 747 mmHg 60%
    13:00 +21°C° 0 mm 3 mps 747 mmHg 59%
    14:00 +21°C° 0 mm 3 mps 747 mmHg 59%
    15:00 +20°C° 0 mm 3 mps 747 mmHg 62%
    16:00 +20°C° 0 mm 3 mps 747 mmHg 65%
    17:00 +19°C° 0 mm 3 mps 747 mmHg 68%
    18:00 +17°C° 0 mm 3 mps 747 mmHg 70%
    19:00 +16°C° 0 mm 3 mps 747 mmHg 72%
    20:00 +13°C° 0 mm 3 mps 747 mmHg 74%
    21:00 +13°C° 0 mm 2 mps 748 mmHg 74%
    22:00 +12°C° 0 mm 2 mps 748 mmHg 73%
    23:00 +10°C° 0 mm 2 mps 748 mmHg 73%
    Mostrar más